• In Latvia
  • List of Countries
  • For 7 days
  • Water Temperature
  • Satellite Maps
  • Weather Map
  • Weather Widgets
  • user-avatar
    Login

    Hourly Weather San Luis

    Today, 24 September, Sunday

    Time Temperature Precipitation Wind Pressure Humidity
    00:00 +17°C° 0 mm 9 mps 698 mmHg 32%
    01:00 +17°C° 0 mm 9 mps 698 mmHg 34%
    02:00 +17°C° 0 mm 9 mps 698 mmHg 36%
    03:00 +16°C° 0 mm 8 mps 697 mmHg 38%
    04:00 +16°C° 0 mm 8 mps 697 mmHg 40%
    05:00 +16°C° 0 mm 8 mps 697 mmHg 43%
    06:00 +16°C° 0 mm 8 mps 697 mmHg 43%
    07:00 +17°C° 0 mm 9 mps 697 mmHg 44%
    08:00 +18°C° 0 mm 9 mps 698 mmHg 44%
    09:00 +21°C° 0 mm 9 mps 698 mmHg 41%
    10:00 +22°C° 0 mm 8 mps 698 mmHg 38%
    11:00 +24°C° 0 mm 7 mps 698 mmHg 35%
    12:00 +26°C° 0 mm 7 mps 698 mmHg 33%
    13:00 +27°C° 0 mm 6 mps 698 mmHg 31%
    14:00 +28°C° 0 mm 5 mps 697 mmHg 29%
    15:00 +28°C° 0 mm 4 mps 697 mmHg 29%
    16:00 +28°C° 0 mm 3 mps 697 mmHg 30%
    17:00 +28°C° 0 mm 3 mps 697 mmHg 30%
    18:00 +26°C° 0 mm 3 mps 697 mmHg 34%
    19:00 +25°C° 0 mm 3 mps 698 mmHg 39%
    20:00 +24°C° 0 mm 3 mps 698 mmHg 43%
    21:00 +22°C° 0 mm 3 mps 699 mmHg 46%
    22:00 +21°C° 0 mm 2 mps 699 mmHg 50%
    23:00 +20°C° 0 mm 2 mps 700 mmHg 54%

    Tomorrow, 25 September, Monday

    Time Temperature Precipitation Wind Pressure Humidity
    00:00 +20°C° 0 mm 2 mps 700 mmHg 55%
    01:00 +19°C° 0 mm 2 mps 700 mmHg 57%
    02:00 +19°C° 0 mm 2 mps 700 mmHg 59%
    03:00 +18°C° 0 mm 2 mps 700 mmHg 62%
    04:00 +18°C° 0 mm 2 mps 700 mmHg 65%
    05:00 +18°C° 0 mm 2 mps 701 mmHg 68%
    06:00 +19°C° 0 mm 2 mps 702 mmHg 64%
    07:00 +20°C° 0 mm 2 mps 702 mmHg 60%
    08:00 +21°C° 0 mm 2 mps 703 mmHg 57%
    09:00 +22°C° 0 mm 3 mps 703 mmHg 51%
    10:00 +25°C° 0 mm 3 mps 703 mmHg 46%
    11:00 +26°C° 0 mm 3 mps 703 mmHg 41%
    12:00 +27°C° 0 mm 3 mps 703 mmHg 37%
    13:00 +28°C° 0 mm 3 mps 702 mmHg 34%
    14:00 +29°C° 0 mm 3 mps 701 mmHg 30%
    15:00 +29°C° 0 mm 4 mps 701 mmHg 31%
    16:00 +29°C° 0 mm 5 mps 700 mmHg 32%
    17:00 +28°C° 0 mm 5 mps 700 mmHg 33%
    18:00 +27°C° 0 mm 6 mps 700 mmHg 39%
    19:00 +24°C° 0 mm 6 mps 700 mmHg 45%
    20:00 +23°C° 0 mm 7 mps 700 mmHg 51%
    21:00 +22°C° 0 mm 6 mps 700 mmHg 52%
    22:00 +22°C° 0 mm 6 mps 700 mmHg 53%
    23:00 +21°C° 0 mm 6 mps 700 mmHg 55%

    Day after tomorrow, 26 September, Tuesday

    Time Temperature Precipitation Wind Pressure Humidity
    00:00 +21°C° 0 mm 5 mps 699 mmHg 57%
    01:00 +21°C° 0 mm 5 mps 699 mmHg 59%
    02:00 +20°C° 0 mm 4 mps 698 mmHg 60%
    03:00 +20°C° 0 mm 4 mps 698 mmHg 63%
    04:00 +19°C° 0 mm 4 mps 698 mmHg 66%
    05:00 +19°C° 0 mm 4 mps 697 mmHg 68%
    06:00 +19°C° 0 mm 5 mps 698 mmHg 67%
    07:00 +20°C° 0 mm 5 mps 698 mmHg 66%
    08:00 +21°C° 0 mm 6 mps 699 mmHg 65%
    09:00 +22°C° 0.2 mm 6 mps 699 mmHg 61%
    10:00 +23°C° 0.2 mm 6 mps 700 mmHg 57%
    11:00 +24°C° 0.2 mm 6 mps 700 mmHg 53%
    12:00 +23°C° 0.1 mm 6 mps 700 mmHg 56%
    13:00 +21°C° 0.1 mm 7 mps 700 mmHg 59%
    14:00 +20°C° 0.1 mm 7 mps 699 mmHg 62%
    15:00 +17°C° 0 mm 8 mps 699 mmHg 66%
    16:00 +15°C° 0 mm 8 mps 699 mmHg 71%
    17:00 +12°C° 0 mm 8 mps 699 mmHg 75%
    18:00 +11°C° 0 mm 8 mps 700 mmHg 76%
    19:00 +10°C° 0 mm 8 mps 701 mmHg 77%
    20:00 +10°C° 0 mm 7 mps 701 mmHg 78%
    21:00 +9°C° 0 mm 7 mps 702 mmHg 78%
    22:00 +9°C° 0 mm 7 mps 702 mmHg 79%
    23:00 +9°C° 0 mm 7 mps 703 mmHg 79%

    27 September, Wednesday

    Time Temperature Precipitation Wind Pressure Humidity
    00:00 +9°C° 0 mm 7 mps 703 mmHg 79%
    01:00 +8°C° 0 mm 7 mps 702 mmHg 80%
    02:00 +8°C° 0 mm 7 mps 702 mmHg 81%
    03:00 +8°C° 0 mm 7 mps 702 mmHg 81%
    04:00 +8°C° 0 mm 7 mps 702 mmHg 81%
    05:00 +6°C° 0 mm 7 mps 702 mmHg 81%
    06:00 +8°C° 0 mm 6 mps 703 mmHg 79%
    07:00 +8°C° 0 mm 6 mps 703 mmHg 77%
    08:00 +9°C° 0 mm 6 mps 704 mmHg 75%
    09:00 +10°C° 0 mm 6 mps 704 mmHg 70%
    10:00 +11°C° 0 mm 6 mps 704 mmHg 66%
    11:00 +14°C° 0 mm 5 mps 704 mmHg 61%
    12:00 +15°C° 0 mm 6 mps 703 mmHg 58%
    13:00 +16°C° 0 mm 6 mps 702 mmHg 55%
    14:00 +17°C° 0 mm 6 mps 702 mmHg 52%
    15:00 +17°C° 0 mm 6 mps 701 mmHg 54%
    16:00 +17°C° 0 mm 6 mps 701 mmHg 55%
    17:00 +17°C° 0 mm 7 mps 700 mmHg 56%
    18:00 +16°C° 0 mm 6 mps 701 mmHg 60%
    19:00 +15°C° 0 mm 6 mps 701 mmHg 65%
    20:00 +13°C° 0 mm 6 mps 701 mmHg 70%
    21:00 +13°C° 0 mm 5 mps 701 mmHg 71%
    22:00 +13°C° 0 mm 4 mps 701 mmHg 72%
    23:00 +13°C° 0 mm 4 mps 701 mmHg 73%

    28 September, Thursday

    Time Temperature Precipitation Wind Pressure Humidity
    00:00 +13°C° 0 mm 3 mps 701 mmHg 75%
    01:00 +13°C° 0 mm 3 mps 700 mmHg 76%
    02:00 +13°C° 0 mm 3 mps 700 mmHg 78%
    03:00 +13°C° 0 mm 3 mps 700 mmHg 79%
    04:00 +13°C° 0 mm 3 mps 700 mmHg 80%
    05:00 +12°C° 0 mm 3 mps 700 mmHg 81%
    06:00 +14°C° 0 mm 3 mps 701 mmHg 77%
    07:00 +16°C° 0 mm 3 mps 701 mmHg 73%
    08:00 +17°C° 0 mm 4 mps 702 mmHg 69%
    09:00 +18°C° 0 mm 4 mps 701 mmHg 64%
    10:00 +19°C° 0 mm 4 mps 701 mmHg 59%
    11:00 +21°C° 0 mm 4 mps 701 mmHg 54%
    12:00 +21°C° 0 mm 4 mps 700 mmHg 53%
    13:00 +22°C° 0 mm 4 mps 700 mmHg 52%
    14:00 +22°C° 0 mm 4 mps 699 mmHg 50%
    15:00 +22°C° 0 mm 4 mps 699 mmHg 51%
    16:00 +22°C° 0 mm 5 mps 699 mmHg 52%
    17:00 +21°C° 0 mm 5 mps 698 mmHg 52%
    18:00 +20°C° 0 mm 4 mps 699 mmHg 57%
    19:00 +19°C° 0 mm 4 mps 699 mmHg 62%
    20:00 +18°C° 0 mm 3 mps 700 mmHg 67%
    21:00 +17°C° 0 mm 3 mps 700 mmHg 69%
    22:00 +17°C° 0 mm 3 mps 700 mmHg 71%
    23:00 +17°C° 0 mm 3 mps 700 mmHg 73%

    29 September, Friday

    Time Temperature Precipitation Wind Pressure Humidity
    00:00 +16°C° 0 mm 3 mps 699 mmHg 74%
    01:00 +15°C° 0 mm 4 mps 699 mmHg 76%
    02:00 +15°C° 0 mm 4 mps 699 mmHg 78%
    03:00 +14°C° 0 mm 4 mps 699 mmHg 79%
    04:00 +14°C° 0 mm 4 mps 698 mmHg 80%
    05:00 +14°C° 0 mm 4 mps 698 mmHg 81%
    06:00 +15°C° 0 mm 4 mps 699 mmHg 76%
    07:00 +17°C° 0 mm 4 mps 699 mmHg 71%
    08:00 +18°C° 0 mm 4 mps 699 mmHg 66%
    09:00 +20°C° 0 mm 4 mps 699 mmHg 59%
    10:00 +22°C° 0 mm 5 mps 699 mmHg 52%
    11:00 +25°C° 0 mm 5 mps 699 mmHg 44%
    12:00 +26°C° 0 mm 5 mps 698 mmHg 41%
    13:00 +27°C° 0 mm 5 mps 697 mmHg 37%
    14:00 +28°C° 0 mm 4 mps 697 mmHg 33%
    15:00 +28°C° 0 mm 4 mps 696 mmHg 33%
    16:00 +28°C° 0 mm 4 mps 695 mmHg 33%
    17:00 +28°C° 0 mm 4 mps 695 mmHg 32%
    18:00 +26°C° 0 mm 4 mps 695 mmHg 39%
    19:00 +23°C° 0 mm 5 mps 694 mmHg 46%
    20:00 +21°C° 0 mm 5 mps 694 mmHg 53%
    21:00 +21°C° 0 mm 5 mps 694 mmHg 55%
    22:00 +20°C° 0 mm 6 mps 694 mmHg 56%
    23:00 +20°C° 0 mm 7 mps 693 mmHg 57%
    Show more